Time,TemperatureF,DewpointF,PressureIn,WindDirection,WindDirectionDegrees,WindSpeedMPH,WindSpeedGustMPH,Humidity,HourlyPrecipIn,Conditions,Clouds,dailyrainin,SoftwareType,DateUTC
2013-03-02 00:01:00,34.0,33.0,-100.00,NE,37,6.0,8.0,97,0.00,,,-99.99,,2013-03-02 07:01:00,
2013-03-02 00:11:00,33.0,33.0,-100.00,NE,52,5.0,6.0,97,0.00,,,-99.99,,2013-03-02 07:11:00,
2013-03-02 00:21:00,33.0,33.0,-100.00,NNE,28,6.0,7.0,98,0.00,,,-99.99,,2013-03-02 07:21:00,
2013-03-02 00:32:00,33.0,33.0,-100.00,NNE,28,6.0,7.0,98,0.00,,,-99.99,,2013-03-02 07:32:00,
2013-03-02 00:41:00,33.0,32.0,-100.00,NNE,31,5.0,6.0,98,0.00,,,-99.99,,2013-03-02 07:41:00,
2013-03-02 00:52:00,32.0,32.0,-100.00,NE,40,5.0,6.0,99,0.00,,,-99.99,,2013-03-02 07:52:00,
2013-03-02 01:01:00,32.0,32.0,-100.00,NE,40,5.0,6.0,99,0.00,,,-99.99,,2013-03-02 08:01:00,
2013-03-02 01:11:00,32.0,32.0,-100.00,NE,49,2.0,4.0,98,0.00,,,-99.99,,2013-03-02 08:11:00,
2013-03-02 01:21:00,32.0,32.0,-100.00,NNE,27,3.0,4.0,99,0.00,,,-99.99,,2013-03-02 08:21:00,
2013-03-02 01:31:00,32.0,32.0,-100.00,NNE,27,3.0,4.0,99,0.00,,,-99.99,,2013-03-02 08:31:00,
2013-03-02 01:42:00,32.0,32.0,-100.00,NNE,27,3.0,4.0,99,0.00,,,-99.99,,2013-03-02 08:42:00,
2013-03-02 01:52:00,33.0,33.0,-100.00,NE,45,3.0,3.0,99,0.00,,,-99.99,,2013-03-02 08:52:00,
2013-03-02 02:01:00,33.0,33.0,-100.00,NE,45,3.0,3.0,99,0.00,,,-99.99,,2013-03-02 09:01:00,
2013-03-02 02:11:00,33.0,33.0,-100.00,NE,44,2.0,3.0,99,0.00,,,-99.99,,2013-03-02 09:11:00,
2013-03-02 02:21:00,33.0,33.0,-100.00,NNE,16,2.0,3.0,99,0.00,,,-99.99,,2013-03-02 09:21:00,
2013-03-02 02:31:00,33.0,33.0,-100.00,NNE,16,2.0,3.0,99,0.00,,,-99.99,,2013-03-02 09:31:00,
2013-03-02 02:42:00,33.0,33.0,-100.00,ENE,75,1.0,2.0,99,0.00,,,-99.99,,2013-03-02 09:42:00,
2013-03-02 02:52:00,32.0,32.0,-100.00,NNW,329,0.0,1.0,100,0.00,,,-99.99,,2013-03-02 09:52:00,
2013-03-02 03:01:00,32.0,32.0,-100.00,NNW,329,0.0,1.0,100,0.00,,,-99.99,,2013-03-02 10:01:00,
2013-03-02 03:14:00,32.0,32.0,-100.00,NW,308,3.0,4.0,99,0.00,,,-99.99,,2013-03-02 10:14:00,
2013-03-02 03:21:00,31.0,31.0,-100.00,NW,319,4.0,4.0,100,0.00,,,-99.99,,2013-03-02 10:21:00,
2013-03-02 03:31:00,31.0,31.0,-100.00,NW,319,4.0,4.0,100,0.00,,,-99.99,,2013-03-02 10:31:00,
2013-03-02 03:42:00,32.0,32.0,-100.00,North,356,3.0,4.0,100,0.00,,,-99.99,,2013-03-02 10:42:00,
2013-03-02 03:52:00,32.0,32.0,-100.00,NE,37,4.0,4.0,100,0.00,,,-99.99,,2013-03-02 10:52:00,
2013-03-02 04:01:00,32.0,32.0,-100.00,NE,37,4.0,4.0,100,0.00,,,-99.99,,2013-03-02 11:01:00,
2013-03-02 04:11:00,32.0,32.0,-100.00,NE,44,4.0,5.0,100,0.00,,,-99.99,,2013-03-02 11:11:00,
2013-03-02 04:21:00,32.0,32.0,-100.00,NE,40,6.0,8.0,100,0.00,,,-99.99,,2013-03-02 11:21:00,
2013-03-02 04:31:00,32.0,32.0,-100.00,NE,40,6.0,8.0,100,0.00,,,-99.99,,2013-03-02 11:31:00,
2013-03-02 04:41:00,32.0,32.0,-100.00,NE,44,4.0,5.0,100,0.00,,,-99.99,,2013-03-02 11:41:00,
2013-03-02 04:52:00,32.0,32.0,-100.00,NNE,28,6.0,7.0,100,0.00,,,-99.99,,2013-03-02 11:52:00,
2013-03-02 05:02:00,32.0,32.0,-100.00,NNE,28,6.0,7.0,100,0.00,,,-99.99,,2013-03-02 12:02:00,
2013-03-02 05:11:00,31.0,31.0,-100.00,NE,55,4.0,5.0,100,0.00,,,-99.99,,2013-03-02 12:11:00,
2013-03-02 05:21:00,32.0,32.0,-100.00,NE,35,5.0,6.0,100,0.00,,,-99.99,,2013-03-02 12:21:00,
2013-03-02 05:32:00,32.0,32.0,-100.00,NE,35,5.0,6.0,100,0.00,,,-99.99,,2013-03-02 12:32:00,
2013-03-02 05:43:00,31.0,31.0,-100.00,NE,35,5.0,6.0,100,0.00,,,-99.99,,2013-03-02 12:43:00,
2013-03-02 05:53:00,31.0,31.0,-100.00,NNE,18,4.0,4.0,100,0.00,,,-99.99,,2013-03-02 12:53:00,
2013-03-02 06:01:00,31.0,31.0,-100.00,NNE,18,4.0,4.0,100,0.00,,,-99.99,,2013-03-02 13:01:00,
2013-03-02 06:11:00,32.0,32.0,-100.00,NNE,28,5.0,6.0,100,0.00,,,-99.99,,2013-03-02 13:11:00,
2013-03-02 06:21:00,31.0,31.0,-100.00,NE,44,3.0,3.0,100,0.00,,,-99.99,,2013-03-02 13:21:00,
2013-03-02 06:31:00,31.0,31.0,-100.00,NE,44,3.0,3.0,100,0.00,,,-99.99,,2013-03-02 13:31:00,
2013-03-02 06:41:00,31.0,31.0,-100.00,NE,34,2.0,3.0,100,0.00,,,-99.99,,2013-03-02 13:41:00,
2013-03-02 06:52:00,30.0,30.0,-100.00,North,6,5.0,6.0,100,0.00,,,-99.99,,2013-03-02 13:52:00,
2013-03-02 07:01:00,30.0,30.0,-100.00,North,6,5.0,6.0,100,0.00,,,-99.99,,2013-03-02 14:01:00,
2013-03-02 07:11:00,30.0,30.0,-100.00,NNE,20,5.0,6.0,100,0.00,,,-99.99,,2013-03-02 14:11:00,
2013-03-02 07:21:00,30.0,30.0,-100.00,NNE,32,4.0,5.0,100,0.00,,,-99.99,,2013-03-02 14:21:00,
2013-03-02 07:31:00,30.0,30.0,-100.00,NNE,32,4.0,5.0,100,0.00,,,-99.99,,2013-03-02 14:31:00,
2013-03-02 07:42:00,31.0,31.0,-100.00,NE,42,5.0,6.0,100,0.00,,,-99.99,,2013-03-02 14:42:00,
2013-03-02 07:52:00,31.0,31.0,-100.00,NE,42,5.0,6.0,100,0.00,,,-99.99,,2013-03-02 14:52:00,
2013-03-02 08:01:00,31.0,31.0,-100.00,NE,42,5.0,6.0,100,0.00,,,-99.99,,2013-03-02 15:01:00,
2013-03-02 08:11:00,31.0,31.0,-100.00,NNE,30,5.0,6.0,100,0.00,,,-99.99,,2013-03-02 15:11:00,
2013-03-02 08:21:00,31.0,31.0,-100.00,NE,42,3.0,5.0,100,0.00,,,-99.99,,2013-03-02 15:21:00,
2013-03-02 08:31:00,31.0,31.0,-100.00,NE,42,3.0,5.0,100,0.00,,,-99.99,,2013-03-02 15:31:00,
2013-03-02 08:41:00,32.0,31.0,-100.00,NNE,28,8.0,9.0,99,0.00,,,-99.99,,2013-03-02 15:41:00,
2013-03-02 08:52:00,32.0,32.0,-100.00,NNE,23,8.0,10.0,99,0.00,,,-99.99,,2013-03-02 15:52:00,
2013-03-02 09:01:00,32.0,32.0,-100.00,NNE,23,8.0,10.0,99,0.00,,,-99.99,,2013-03-02 16:01:00,
2013-03-02 09:11:00,33.0,33.0,-100.00,NE,37,10.0,12.0,99,0.00,,,-99.99,,2013-03-02 16:11:00,
2013-03-02 09:21:00,33.0,33.0,-100.00,NE,34,10.0,12.0,99,0.00,,,-99.99,,2013-03-02 16:21:00,
2013-03-02 09:31:00,33.0,33.0,-100.00,NE,34,10.0,12.0,99,0.00,,,-99.99,,2013-03-02 16:31:00,
2013-03-02 09:41:00,34.0,34.0,-100.00,NNE,28,9.0,11.0,99,0.00,,,-99.99,,2013-03-02 16:41:00,
2013-03-02 09:52:00,35.0,34.0,-100.00,NE,37,9.0,10.0,98,0.00,,,-99.99,,2013-03-02 16:52:00,
2013-03-02 10:01:00,35.0,34.0,-100.00,NE,37,9.0,10.0,98,0.00,,,-99.99,,2013-03-02 17:01:00,
2013-03-02 10:11:00,35.0,34.0,-100.00,NNE,25,10.0,11.0,96,0.00,,,-99.99,,2013-03-02 17:11:00,
2013-03-02 10:21:00,35.0,34.0,-100.00,NNE,25,10.0,11.0,96,0.00,,,-99.99,,2013-03-02 17:21:00,
2013-03-02 10:31:00,35.0,34.0,-100.00,NNE,25,10.0,11.0,96,0.00,,,-99.99,,2013-03-02 17:31:00,
2013-03-02 10:41:00,38.0,36.0,-100.00,North,354,5.0,7.0,91,0.00,,,-99.99,,2013-03-02 17:41:00,
2013-03-02 10:52:00,39.0,36.0,-100.00,NNW,340,6.0,8.0,89,0.00,,,-99.99,,2013-03-02 17:52:00,
2013-03-02 11:01:00,39.0,36.0,-100.00,NNW,340,6.0,8.0,89,0.00,,,-99.99,,2013-03-02 18:01:00,
2013-03-02 11:11:00,38.0,35.0,-100.00,North,349,6.0,7.0,89,0.00,,,-99.99,,2013-03-02 18:11:00,
2013-03-02 11:22:00,38.0,35.0,-100.00,North,349,6.0,7.0,89,0.00,,,-99.99,,2013-03-02 18:22:00,
2013-03-02 11:31:00,38.0,35.0,-100.00,North,349,6.0,7.0,89,0.00,,,-99.99,,2013-03-02 18:31:00,
2013-03-02 11:41:00,40.0,36.0,-100.00,North,357,7.0,9.0,87,0.00,,,-99.99,,2013-03-02 18:41:00,
2013-03-02 11:52:00,41.0,37.0,-100.00,North,352,6.0,7.0,85,0.00,,,-99.99,,2013-03-02 18:52:00,
2013-03-02 12:01:00,41.0,37.0,-100.00,North,352,6.0,7.0,85,0.00,,,-99.99,,2013-03-02 19:01:00,
2013-03-02 12:11:00,43.0,37.0,-100.00,North,359,6.0,13.0,79,0.00,,,-99.99,,2013-03-02 19:11:00,
2013-03-02 12:21:00,44.0,36.0,-100.00,NE,49,3.0,4.0,74,0.00,,,-99.99,,2013-03-02 19:21:00,
2013-03-02 12:31:00,44.0,36.0,-100.00,NE,49,3.0,4.0,74,0.00,,,-99.99,,2013-03-02 19:31:00,
2013-03-02 12:42:00,45.0,37.0,-100.00,NNE,27,4.0,7.0,74,0.00,,,-99.99,,2013-03-02 19:42:00,
2013-03-02 12:52:00,46.0,38.0,-100.00,NNE,14,2.0,4.0,73,0.00,,,-99.99,,2013-03-02 19:52:00,
2013-03-02 13:01:00,46.0,38.0,-100.00,NNE,14,2.0,4.0,73,0.00,,,-99.99,,2013-03-02 20:01:00,
2013-03-02 13:11:00,45.0,38.0,-100.00,NNW,337,7.0,9.0,78,0.00,,,-99.99,,2013-03-02 20:11:00,
2013-03-02 13:21:00,45.0,39.0,-100.00,NNW,332,8.0,11.0,77,0.00,,,-99.99,,2013-03-02 20:21:00,
2013-03-02 13:31:00,45.0,39.0,-100.00,NNW,332,8.0,11.0,77,0.00,,,-99.99,,2013-03-02 20:31:00,
2013-03-02 13:41:00,47.0,39.0,-100.00,North,357,5.0,8.0,74,0.00,,,-99.99,,2013-03-02 20:41:00,
2013-03-02 13:52:00,47.0,39.0,-100.00,North,357,5.0,8.0,74,0.00,,,-99.99,,2013-03-02 20:52:00,
2013-03-02 14:02:00,47.0,39.0,-100.00,North,357,5.0,8.0,74,0.00,,,-99.99,,2013-03-02 21:02:00,
2013-03-02 14:11:00,50.0,37.0,-100.00,SSE,158,15.0,19.0,60,0.00,,,-99.99,,2013-03-02 21:11:00,
2013-03-02 14:21:00,50.0,39.0,-100.00,SE,145,16.0,19.0,64,0.00,,,-99.99,,2013-03-02 21:21:00,
2013-03-02 14:31:00,50.0,39.0,-100.00,SE,145,16.0,19.0,64,0.00,,,-99.99,,2013-03-02 21:31:00,
2013-03-02 14:41:00,50.0,37.0,-100.00,SE,144,12.0,16.0,62,0.00,,,-99.99,,2013-03-02 21:41:00,
2013-03-02 14:52:00,50.0,39.0,-100.00,SE,141,15.0,18.0,65,0.00,,,-99.99,,2013-03-02 21:52:00,
2013-03-02 15:01:00,50.0,39.0,-100.00,SE,141,15.0,18.0,65,0.00,,,-99.99,,2013-03-02 22:01:00,
2013-03-02 15:11:00,50.0,39.0,-100.00,SE,141,15.0,18.0,65,0.00,,,-99.99,,2013-03-02 22:11:00,
2013-03-02 15:21:00,49.0,37.0,-100.00,SE,130,15.0,23.0,65,0.00,,,-99.99,,2013-03-02 22:21:00,
2013-03-02 15:31:00,49.0,37.0,-100.00,SE,130,15.0,23.0,65,0.00,,,-99.99,,2013-03-02 22:31:00,
2013-03-02 15:42:00,49.0,37.0,-100.00,SE,136,19.0,22.0,63,0.00,,,-99.99,,2013-03-02 22:42:00,
2013-03-02 15:52:00,49.0,37.0,-100.00,SE,136,19.0,22.0,63,0.00,,,-99.99,,2013-03-02 22:52:00,
2013-03-02 16:01:00,49.0,37.0,-100.00,SE,136,19.0,22.0,63,0.00,,,-99.99,,2013-03-02 23:01:00,
2013-03-02 16:11:00,49.0,38.0,-100.00,SE,141,17.0,21.0,66,0.00,,,-99.99,,2013-03-02 23:11:00,
2013-03-02 16:21:00,49.0,37.0,-100.00,SE,141,14.0,17.0,65,0.00,,,-99.99,,2013-03-02 23:21:00,
2013-03-02 16:32:00,49.0,37.0,-100.00,SE,141,14.0,17.0,65,0.00,,,-99.99,,2013-03-02 23:32:00,
2013-03-02 16:41:00,48.0,37.0,-100.00,SE,137,16.0,19.0,66,0.00,,,-99.99,,2013-03-02 23:41:00,
2013-03-02 16:52:00,47.0,37.0,-100.00,SE,136,14.0,18.0,67,0.00,,,-99.99,,2013-03-02 23:52:00,
2013-03-02 17:02:00,47.0,37.0,-100.00,SE,136,14.0,18.0,67,0.00,,,-99.99,,2013-03-03 00:02:00,
2013-03-02 17:11:00,47.0,37.0,-100.00,SE,136,14.0,18.0,67,0.00,,,-99.99,,2013-03-03 00:11:00,
2013-03-02 17:22:00,46.0,37.0,-100.00,SE,138,16.0,18.0,69,0.00,,,-99.99,,2013-03-03 00:22:00,
2013-03-02 17:31:00,46.0,37.0,-100.00,SE,138,16.0,18.0,69,0.00,,,-99.99,,2013-03-03 00:31:00,
2013-03-02 17:42:00,46.0,37.0,-100.00,SE,136,15.0,20.0,70,0.00,,,-99.99,,2013-03-03 00:42:00,
2013-03-02 17:52:00,45.0,36.0,-100.00,SE,136,13.0,18.0,71,0.00,,,-99.99,,2013-03-03 00:52:00,
2013-03-02 18:01:00,45.0,36.0,-100.00,SE,136,13.0,18.0,71,0.00,,,-99.99,,2013-03-03 01:01:00,
2013-03-02 18:11:00,44.0,36.0,-100.00,SE,134,14.0,17.0,73,0.00,,,-99.99,,2013-03-03 01:11:00,
2013-03-02 18:21:00,44.0,35.0,-100.00,SE,140,15.0,18.0,72,0.00,,,-99.99,,2013-03-03 01:21:00,
2013-03-02 18:31:00,44.0,35.0,-100.00,SE,140,15.0,18.0,72,0.00,,,-99.99,,2013-03-03 01:31:00,
2013-03-02 18:41:00,44.0,35.0,-100.00,SSE,150,11.0,14.0,72,0.00,,,-99.99,,2013-03-03 01:41:00,
2013-03-02 18:52:00,43.0,35.0,-100.00,SSE,151,11.0,15.0,74,0.00,,,-99.99,,2013-03-03 01:52:00,
2013-03-02 19:01:00,43.0,35.0,-100.00,SSE,151,11.0,15.0,74,0.00,,,-99.99,,2013-03-03 02:01:00,
2013-03-02 19:11:00,43.0,35.0,-100.00,SSE,147,16.0,18.0,73,0.00,,,-99.99,,2013-03-03 02:11:00,
2013-03-02 19:21:00,42.0,35.0,-100.00,SSE,148,14.0,17.0,75,0.00,,,-99.99,,2013-03-03 02:21:00,
2013-03-02 19:31:00,42.0,35.0,-100.00,SSE,148,14.0,17.0,75,0.00,,,-99.99,,2013-03-03 02:31:00,
2013-03-02 19:41:00,42.0,35.0,-100.00,SSE,151,13.0,15.0,76,0.00,,,-99.99,,2013-03-03 02:41:00,
2013-03-02 19:52:00,43.0,35.0,-100.00,SSE,152,18.0,22.0,74,0.00,,,-99.99,,2013-03-03 02:52:00,
2013-03-02 20:01:00,43.0,35.0,-100.00,SSE,152,18.0,22.0,74,0.00,,,-99.99,,2013-03-03 03:01:00,
2013-03-02 20:11:00,43.0,35.0,-100.00,SSE,165,14.0,20.0,73,0.00,,,-99.99,,2013-03-03 03:11:00,
2013-03-02 20:21:00,43.0,35.0,-100.00,SSE,152,15.0,21.0,73,0.00,,,-99.99,,2013-03-03 03:21:00,
2013-03-02 20:31:00,43.0,35.0,-100.00,SSE,152,15.0,21.0,73,0.00,,,-99.99,,2013-03-03 03:31:00,
2013-03-02 20:41:00,42.0,35.0,-100.00,SE,145,15.0,18.0,74,0.00,,,-99.99,,2013-03-03 03:41:00,
2013-03-02 20:52:00,42.0,35.0,-100.00,SSE,162,13.0,16.0,75,0.00,,,-99.99,,2013-03-03 03:52:00,
2013-03-02 21:01:00,42.0,35.0,-100.00,SSE,162,13.0,16.0,75,0.00,,,-99.99,,2013-03-03 04:01:00,
2013-03-02 21:11:00,42.0,35.0,-100.00,SSE,154,16.0,19.0,74,0.00,,,-99.99,,2013-03-03 04:11:00,
2013-03-02 21:21:00,42.0,35.0,-100.00,SSE,160,15.0,20.0,74,0.00,,,-99.99,,2013-03-03 04:21:00,
2013-03-02 21:31:00,42.0,35.0,-100.00,SSE,160,15.0,20.0,74,0.00,,,-99.99,,2013-03-03 04:31:00,
2013-03-02 21:41:00,43.0,35.0,-100.00,SSE,148,17.0,21.0,73,0.00,,,-99.99,,2013-03-03 04:41:00,
2013-03-02 21:52:00,43.0,35.0,-100.00,SSE,152,12.0,18.0,72,0.00,,,-99.99,,2013-03-03 04:52:00,
2013-03-02 22:01:00,43.0,35.0,-100.00,SSE,152,12.0,18.0,72,0.00,,,-99.99,,2013-03-03 05:01:00,
2013-03-02 22:11:00,43.0,35.0,-100.00,SSE,152,14.0,16.0,73,0.00,,,-99.99,,2013-03-03 05:11:00,
2013-03-02 22:22:00,42.0,35.0,-100.00,SSE,151,13.0,16.0,75,0.00,,,-99.99,,2013-03-03 05:22:00,
2013-03-02 22:32:00,42.0,35.0,-100.00,SSE,151,13.0,16.0,75,0.00,,,-99.99,,2013-03-03 05:32:00,
2013-03-02 22:42:00,42.0,35.0,-100.00,SSE,158,13.0,17.0,76,0.00,,,-99.99,,2013-03-03 05:42:00,
2013-03-02 22:52:00,42.0,35.0,-100.00,SSE,158,13.0,17.0,76,0.00,,,-99.99,,2013-03-03 05:52:00,
2013-03-02 23:01:00,42.0,35.0,-100.00,SSE,158,13.0,17.0,76,0.00,,,-99.99,,2013-03-03 06:01:00,
2013-03-02 23:11:00,43.0,35.0,-100.00,SSE,154,15.0,19.0,73,0.00,,,-99.99,,2013-03-03 06:11:00,
2013-03-02 23:21:00,42.0,35.0,-100.00,SSE,164,13.0,17.0,74,0.00,,,-99.99,,2013-03-03 06:21:00,
2013-03-02 23:31:00,42.0,35.0,-100.00,SSE,164,13.0,17.0,74,0.00,,,-99.99,,2013-03-03 06:31:00,
2013-03-02 23:42:00,42.0,35.0,-100.00,SSE,150,15.0,22.0,75,0.00,,,-99.99,,2013-03-03 06:42:00,
2013-03-02 23:52:00,43.0,35.0,-100.00,SSE,152,15.0,22.0,73,0.00,,,-99.99,,2013-03-03 06:52:00,